Regional Weather Roundup
Issued by NWS Cleveland, OH

Home | Current Version | Previous Version | Graphics & Text | Print | Product List | Glossary On
Versions: 1 2 3 4 5 6 7 8 9 10 11 12 13 14 15 16 17 18 19 20 21 22 23 24 25 26 27 28 29 30 31 32 33 34 35 36 37 38 39 40 41 42 43 44 45 46 47 48 49 50
000
ASUS41 KCLE 222012
RWRCLE
OHIO REGIONAL WEATHER ROUNDUP
NATIONAL WEATHER SERVICE WILMINGTON, OH
400 PM EDT FRI SEP 22 2017

NOTE: "FAIR" INDICATES FEW OR NO CLOUDS BELOW 12,000 FEET WITH NO
SIGNIFICANT WEATHER AND/OR OBSTRUCTIONS TO VISIBILITY.

OHZ001>008-015>018-024>027-034-035-043-044-222100-
   NORTHWEST OHIO

CITY           SKY/WX    TMP DP  RH WIND       PRES   REMARKS
DEFIANCE       FAIR      91  66  43 CALM      30.07F HX  93
FINDLAY        FAIR      90  68  48 NE6       30.06F HX  94
TOLEDO EXPRESS FAIR      91  70  49 E8        30.07F HX  96
TOLEDO EXEC    FAIR      88  69  53 E9        30.09S HX  92
LIMA           FAIR      89  67  47 NE9       30.07F HX  92
$$

OHZ009>014-019>023-028>033-038-089-222100-
   NORTHEAST OHIO

CITY           SKY/WX    TMP DP  RH WIND       PRES   REMARKS
CLE-HOPKINS    FAIR      89  61  38 N12       30.10F
CLE-LAKEFRONT  FAIR      77  67  71 NE10      30.08F
CUY CO. ARPT   MOSUNNY   86  64  48 N9        30.11F
LORAIN-ELYRIA  FAIR      87  61  41 NE6       30.09F
ASHTABULA      FAIR      83  62  49 VRB7      30.12F
AKRON-CANTON   PTSUNNY   88  59  37 VRB6      30.11F
WOOSTER        FAIR      85  60  42 E5        30.11F
MANSFIELD      FAIR      88  60  38 VRB7      30.11F
YOUNGSTOWN     PTSUNNY   83  63  50 NE7       30.12F
$$

OHZ042-051>053-060>062-070>072-077>081-222100-
  SOUTHWEST OHIO

CITY           SKY/WX    TMP DP  RH WIND       PRES   REMARKS
CINC-COVINGTON PTSUNNY   88  67  49 CALM      30.06F HX  91
CINC-LUNKEN    FAIR      89  66  46 VRB5      30.05F HX  91
HAMILTON       FAIR      90  66  45 E7        30.06F HX  92
DAYTON         FAIR      88  64  44 VRB3      30.08F
WRIGHT-PAT AFB MOSUNNY   90  62  38 E6        30.06F HX  90
DAYTON GENERAL FAIR      89  65  44 CALM      30.07F HX  91
WILMINGTON     FAIR      86  66  51 VRB5      30.07F
$$

OHZ036-037-039>041-045>050-054>059-063>069-073>076-082>088-222100-
  CENTRAL AND SOUTHEAST OHIO

CITY           SKY/WX    TMP DP  RH WIND       PRES   REMARKS
COLUMBUS       FAIR      89  66  46 NE5       30.07F HX  91
OSU AIRPORT    FAIR      86  66  51 CALM      30.07F
BOLTON FIELD   SUNNY     88  66  48 CALM      30.08F HX  90
RICKENBACK AFB FAIR      86  65  48 E7        30.06F
NEWARK         FAIR      88  62  41 SE5       30.07F
MARION         FAIR      88  61  40 N8        30.08F
LANCASTER      PTSUNNY   87  67  51 E6        30.08F HX  90
ZANESVILLE     FAIR      88  63  43 NW5       30.08F
NEW PHILLY     FAIR      89  63  41 N8        30.09F HX  90
$$




USA.gov is the U.S. government's official web portal to all federal, state and local government web resources and services.